Weather History for Glens Falls, NY

Change the Weather History Date:

Sunday, April 14, 2013

  Actual Average Record
Temperature  
Mean Temperature 38 °F 44 °F  
Max Temperature 48 °F 56 °F 84 °F (1968)
Min Temperature 27 °F 32 °F 17 °F (1992)
Degree Days  
Heating Degree Days 27 21  
Month to date heating degree days 344 332  
Since 1 July heating degree days 6431 6995  
Cooling Degree Days 0 0  
Month to date cooling degree days 0 0  
Year to date cooling degree days 0 0  
Moisture  
Dew Point 28 °F    
Average Humidity 65    
Maximum Humidity 92    
Minimum Humidity 37    
Precipitation  
Precipitation 0.00 in 0.10 in 0.81 in (1952)
Month to date precipitation 1.42 1.37  
Year to date precipitation 6.83 9.25  
Sea Level Pressure  
Sea Level Pressure 30.06 in    
Wind  
Wind Speed 8 mph (WSW)    
Max Wind Speed 20 mph    
Max Gust Speed 25 mph    
Visibility 10 miles    
Events      
T = Trace of Precipitation, MM = Missing Value Source: NWS Daily Summary

Daily Weather History Graph

Daily Weather History Graph

Search for Another Location

Airport:

Trip Planner

Search our weather history database for the weather conditions in past years. The results will help you decide how hot, cold, wet, or windy it might be!

Date:

Astronomy

Apr. 14, 2013 Rise Set
Actual Time 6:13 AM EDT 7:36 PM EDT
Civil Twilight 5:43 AM EDT 8:06 PM EDT
Nautical Twilight 5:08 AM EDT 8:42 PM EDT
Astronomical Twilight 4:30 AM EDT 9:20 PM EDT
Moon 8:43 AM EDT (4/14) 11:52 PM EDT (4/14)
Length of Visible Light 14h 22m
Length of Day
13h 23m
Waxing Crescent, 17% of the Moon is Illuminated
Apr 14
Waxing Crescent
Apr 18
First Quarter
Apr 25
Full
May 2
Last Quarter
May 9
New

Hourly Weather History & Observations

Time (EDT) Temp. Windchill Dew Point Humidity Pressure Visibility Wind Dir Wind Speed Gust Speed Precip Events Conditions
12:53 AM 39.9 °F 35.8 °F 35.1 °F 83% 29.95 in 10.0 mi South 5.8 mph - N/A   Overcast
1:53 AM 39.0 °F 34.8 °F 35.1 °F 86% 29.94 in 10.0 mi SSE 5.8 mph - N/A   Overcast
2:53 AM 39.0 °F 34.0 °F 35.1 °F 86% 29.94 in 10.0 mi SSW 6.9 mph - N/A   Overcast
3:53 AM 37.9 °F 34.4 °F 35.1 °F 89% 29.94 in 10.0 mi SSW 4.6 mph - N/A   Overcast
4:53 AM 39.0 °F 34.0 °F 35.1 °F 86% 29.95 in 10.0 mi South 6.9 mph - N/A   Overcast
5:53 AM 37.9 °F 31.5 °F 34.0 °F 86% 29.95 in 10.0 mi SSW 9.2 mph - N/A   Partly Cloudy
6:53 AM 37.9 °F 33.5 °F 33.1 °F 83% 29.98 in 10.0 mi SW 5.8 mph - N/A   Scattered Clouds
7:53 AM 39.9 °F 36.7 °F 34.0 °F 79% 30.00 in 10.0 mi South 4.6 mph - N/A   Clear
8:38 AM 42.8 °F 41.1 °F 30.2 °F 61% 29.99 in 10.0 mi SW 3.5 mph 17.3 mph N/A   Mostly Cloudy
8:53 AM 42.1 °F 39.2 °F 30.9 °F 65% 30.01 in 10.0 mi SW 4.6 mph - N/A   Overcast
9:53 AM 44.1 °F 37.4 °F 25.0 °F 47% 30.02 in 10.0 mi WNW 13.8 mph 20.7 mph N/A   Overcast
10:53 AM 46.9 °F - 26.1 °F 44% 30.03 in 10.0 mi West 13.8 mph 20.7 mph N/A   Mostly Cloudy
11:53 AM 44.1 °F 36.8 °F 23.0 °F 43% 30.04 in 10.0 mi West 16.1 mph 23.0 mph N/A   Overcast
12:53 PM 45.0 °F 40.1 °F 23.0 °F 42% 30.05 in 10.0 mi WNW 9.2 mph - N/A   Overcast
1:53 PM 45.0 °F 41.2 °F 24.1 °F 44% 30.07 in 10.0 mi West 6.9 mph 16.1 mph N/A   Overcast
2:53 PM 46.0 °F 40.6 °F 25.0 °F 44% 30.08 in 10.0 mi WSW 11.5 mph 17.3 mph N/A   Overcast
3:53 PM 46.0 °F 40.6 °F 24.1 °F 42% 30.11 in 10.0 mi WNW 11.5 mph - N/A   Overcast
4:53 PM 46.9 °F - 23.0 °F 39% 30.12 in 10.0 mi NW 13.8 mph 23.0 mph N/A   Overcast
5:53 PM 46.0 °F 41.4 °F 21.9 °F 39% 30.14 in 10.0 mi West 9.2 mph 19.6 mph N/A   Partly Cloudy
6:53 PM 44.1 °F 37.7 °F 21.9 °F 42% 30.17 in 10.0 mi WNW 12.7 mph - N/A   Clear
7:53 PM 41.0 °F 35.2 °F 23.0 °F 49% 30.18 in 10.0 mi NW 9.2 mph - N/A   Clear
8:53 PM 39.9 °F 37.8 °F 21.0 °F 47% 30.22 in 10.0 mi NNW 3.5 mph - N/A   Clear
9:53 PM 32.0 °F - 26.1 °F 79% 30.23 in 10.0 mi Calm Calm - N/A   Clear
10:53 PM 30.0 °F - 23.0 °F 75% 30.24 in 10.0 mi Calm Calm - N/A   Clear
11:53 PM 28.0 °F - 24.1 °F 85% 30.27 in 10.0 mi Calm Calm - N/A   Clear